Weather History for Romorantin, France

Change the Weather History Date:

Monday, September 23, 2013

  Actual Average (LFOT) Record (LFOT)
Temperature  
Mean Temperature 65 °F -  
Max Temperature 75 °F 68 °F 81 °F (2012)
Min Temperature 55 °F 49 °F 44 °F (1996)
Growing Degree Days 15 (Base 50)    
Moisture  
Dew Point 58 °F    
Average Humidity 86    
Maximum Humidity 100    
Minimum Humidity 61    
Precipitation  
Precipitation 0.00 in - - ()
Sea Level Pressure  
Sea Level Pressure 30.20 in    
Wind  
Wind Speed 5 mph ()    
Max Wind Speed 8 mph    
Max Gust Speed -    
Visibility 5.0 miles    
Events Fog    
Averages and records for this station are not official NWS values.
T = Trace of Precipitation, MM = Missing Value Source: Averaged Metar Reports

Daily Weather History Graph

Daily Weather History Graph

Search for Another Location

Airport:

Trip Planner

Search our weather history database for the weather conditions in past years. The results will help you decide how hot, cold, wet, or windy it might be!

Date:

Astronomy

Sep. 23, 2013 Rise Set
Actual Time 7:41 AM CEST 7:48 PM CEST
Civil Twilight 7:10 AM CEST 8:19 PM CEST
Nautical Twilight 6:34 AM CEST 8:55 PM CEST
Astronomical Twilight 5:57 AM CEST 9:32 PM CEST
Moon 9:51 PM CEST 12:04 PM CEST
Length of Visible Light 13h 08m
Length of Day
12h 07m
Waning Gibbous, 83% of the Moon is Illuminated
Sep 23
Waning Gibbous
Sep 27
Last Quarter
Oct 5
New
Oct 12
First Quarter
Oct 19
Full

Hourly Weather History & Observations

Time (CEST) Temp. Dew Point Humidity Pressure Visibility Wind Dir Wind Speed Gust Speed Precip Events Conditions
12:00 AM 59.0 °F 57.2 °F 94% 30.33 in 6.2 mi NE 5.8 mph - N/A   Unknown
12:30 AM 59.0 °F 57.2 °F 94% 30.33 in 6.2 mi NE 5.8 mph - N/A   Unknown
1:00 AM 57.2 °F 55.4 °F 94% 30.30 in 6.2 mi NE 5.8 mph - N/A   Unknown
1:30 AM 57.2 °F 55.4 °F 94% 30.30 in 6.2 mi NE 5.8 mph - N/A   Unknown
2:00 AM 57.2 °F 55.4 °F 94% 30.30 in 6.2 mi NE 5.8 mph - N/A   Unknown
2:30 AM 57.2 °F 55.4 °F 94% 30.30 in 6.2 mi NE 5.8 mph - N/A   Unknown
3:00 AM 57.2 °F 55.4 °F 94% 30.27 in 6.2 mi NE 5.8 mph - N/A   Unknown
3:30 AM 57.2 °F 55.4 °F 94% 30.27 in 6.2 mi ENE 5.8 mph - N/A   Unknown
4:00 AM 55.4 °F 55.4 °F 100% 30.27 in 6.2 mi ENE 6.9 mph - N/A   Partly Cloudy
4:30 AM 55.4 °F 55.4 °F 100% 30.27 in - ENE 8.1 mph - N/A   Mist
5:00 AM 55.4 °F 55.4 °F 100% 30.27 in 1.1 mi ENE 3.5 mph - N/A   Mist
5:30 AM 57.2 °F 55.4 °F 94% 30.27 in - ENE 4.6 mph - N/A   Mist
6:00 AM 55.4 °F 55.4 °F 100% 30.24 in 0.6 mi ENE 3.5 mph - N/A   Mist
6:30 AM 55.4 °F 55.4 °F 100% 30.24 in 0.4 mi ENE 3.5 mph - N/A Fog Fog
7:00 AM 55.4 °F 55.4 °F 100% 30.24 in 0.2 mi Variable 3.5 mph - N/A Fog Fog
7:30 AM 55.4 °F 55.4 °F 100% 30.27 in 0.3 mi NE 4.6 mph - N/A Fog Fog
8:00 AM 55.4 °F 55.4 °F 100% 30.27 in 1.2 mi ENE 6.9 mph - N/A   Mist
8:30 AM 55.4 °F 55.4 °F 100% 30.27 in - East 8.1 mph - N/A Fog Fog
9:00 AM 55.4 °F 55.4 °F 100% 30.27 in 0.5 mi East 5.8 mph - N/A Fog Fog
9:30 AM 55.4 °F 55.4 °F 100% 30.27 in 0.8 mi East 6.9 mph - N/A   Mist
10:00 AM 57.2 °F 57.2 °F 100% 30.27 in 1.2 mi ENE 5.8 mph - N/A   Mist
10:30 AM 57.2 °F 57.2 °F 100% 30.27 in - East 5.8 mph - N/A   Mist
11:00 AM 57.2 °F 57.2 °F 100% 30.24 in 5.6 mi ENE 5.8 mph - N/A   Unknown
11:30 AM 59.0 °F 57.2 °F 94% 30.24 in 5.0 mi ENE 5.8 mph - N/A   Unknown
12:00 PM 59.0 °F 57.2 °F 94% 30.24 in 6.2 mi NE 6.9 mph - N/A   Unknown
12:30 PM 59.0 °F 59.0 °F 100% 30.24 in 6.2 mi ENE 5.8 mph - N/A   Unknown
1:00 PM 62.6 °F 59.0 °F 88% 30.24 in 6.2 mi East 5.8 mph - N/A   Overcast
1:30 PM 66.2 °F 59.0 °F 78% 30.21 in 6.2 mi Variable 2.3 mph - N/A   Mostly Cloudy
2:00 PM 68.0 °F 60.8 °F 78% 30.21 in 6.2 mi ENE 4.6 mph - N/A   Partly Cloudy
2:30 PM 69.8 °F 59.0 °F 68% 30.18 in 6.2 mi Variable 3.5 mph - N/A   Partly Cloudy
3:00 PM 71.6 °F 59.0 °F 64% 30.18 in 6.2 mi ENE 4.6 mph - N/A   Unknown
3:30 PM 73.4 °F 60.8 °F 65% 30.15 in 6.2 mi ENE 5.8 mph - N/A   Partly Cloudy
4:00 PM 75.2 °F 60.8 °F 61% 30.15 in 6.2 mi NNE 4.6 mph - N/A   Scattered Clouds
4:30 PM 75.2 °F 60.8 °F 61% 30.12 in 6.2 mi ENE 6.9 mph - N/A   Unknown
5:00 PM 75.2 °F 60.8 °F 61% 30.12 in 6.2 mi NE 5.8 mph - N/A   Unknown
5:30 PM 75.2 °F 60.8 °F 61% 30.12 in 6.2 mi NE 6.9 mph - N/A   Unknown
6:00 PM 75.2 °F 60.8 °F 61% 30.09 in 6.2 mi ENE 8.1 mph - N/A   Unknown
6:30 PM 73.4 °F 60.8 °F 65% 30.09 in 6.2 mi NE 6.9 mph - N/A   Unknown
7:00 PM 73.4 °F 60.8 °F 65% 30.09 in 6.2 mi NE 5.8 mph - N/A   Unknown
7:30 PM 69.8 °F 60.8 °F 73% 30.09 in 6.2 mi NE 4.6 mph - N/A   Unknown
8:00 PM 68.0 °F 59.0 °F 73% 30.09 in 6.2 mi NE 4.6 mph - N/A   Unknown
8:30 PM 66.2 °F 59.0 °F 78% 30.09 in 6.2 mi NE 4.6 mph - N/A   Unknown
9:00 PM 64.4 °F 59.0 °F 83% 30.09 in 6.2 mi NE 4.6 mph - N/A   Unknown
9:30 PM 62.6 °F 57.2 °F 82% 30.09 in 6.2 mi NE 4.6 mph - N/A   Unknown
10:00 PM 62.6 °F 57.2 °F 82% 30.09 in 6.2 mi ENE 4.6 mph - N/A   Unknown
10:30 PM 60.8 °F 57.2 °F 88% 30.09 in 6.2 mi ENE 3.5 mph - N/A   Unknown
11:00 PM 59.0 °F 55.4 °F 88% 30.09 in 6.2 mi ENE 4.6 mph - N/A   Unknown
11:30 PM 57.2 °F 55.4 °F 94% 30.06 in 6.2 mi Variable 2.3 mph - N/A   Unknown